DW5499 Weather Reports


Display with metric or nautical units.
time (UTC)temp
F
wind
direction
speed
MPH
gust
MPH
rain 1hr
in
rain 24hr
in
rain mn
in
humidity
%
barometer
mb
20260508063029 59 225 5.0 14.0 0.00 0.00 0.00 62 1010.5
20260508061524 59 181 4.0 14.0 0.00 0.00 0.00 61 1010.7
20260508060022 60 197 8.0 15.0 0.00 0.00 0.00 60 1010.7
20260508054519 60 233 6.0 15.0 0.00 0.00 0.00 60 1010.7
20260508053022 60 176 7.0 15.0 0.00 0.00 0.00 59 1010.6
20260508051514 60 157 6.0 15.0 0.00 0.00 0.00 59 1010.7
20260508050019 61 143 4.0 17.0 0.00 0.00 0.00 58 1010.7
20260508044510 61 226 7.0 12.0 0.00 0.00 0.00 57 1010.8
20260508043010 61 178 10.0 17.0 0.00 0.00 0.00 57 1010.8
20260508041510 62 224 6.0 17.0 0.00 0.00 0.00 56 1010.9
20260508040017 62 185 6.0 12.0 0.00 0.00 0.00 56 1010.9
20260508034509 62 191 5.0 14.0 0.00 0.00 0.00 55 1010.8
20260508033008 62 201 6.0 14.0 0.00 0.00 0.00 55 1010.9
20260508031508 63 207 6.0 10.0 0.00 0.00 0.00 55 1010.9
20260508030007 63 204 5.0 11.0 0.00 0.00 0.00 54 1010.7
20260508024507 64 196 6.0 15.0 0.00 0.00 0.00 53 1010.5
20260508023019 64 212 3.0 12.0 0.00 0.00 0.00 52 1010.4
20260508021511 64 139 6.0 10.0 0.00 0.00 0.00 52 1010.2
20260508020005 65 158 4.0 8.0 0.00 0.00 0.00 51 1010.1
20260508014517 66 169 4.0 8.0 0.00 0.00 0.00 49 1009.9
20260508013005 66 182 4.0 9.0 0.00 0.00 0.00 48 1009.9
20260508011505 67 178 6.0 11.0 0.00 0.00 0.00 47 1009.9
20260508010004 68 192 6.0 11.0 0.00 0.00 0.00 46 1009.9
20260508004513 68 141 6.0 10.0 0.00 0.00 0.00 45 1009.9
20260508003012 69 207 5.0 12.0 0.00 0.00 0.00 44 1009.8
20260508001502 69 177 6.0 15.0 0.00 0.00 0.00 43 1009.9
20260508000000 70 144 6.0 16.0 0.00 0.00 0.00 42 1010.0
20260507234601 70 194 5.0 12.0 0.00 0.00 0.00 42 1010.1
20260507233058 70 174 8.0 16.0 0.00 0.00 0.00 40 1010.3
20260507231557 71 209 5.0 12.0 0.00 0.00 0.00 40 1010.4
20260507230057 70 217 6.0 14.0 0.00 0.00 0.00 40 1010.6
20260507224611 70 153 6.0 12.0 0.00 0.00 0.00 41 1010.7
20260507223056 70 232 8.0 15.0 0.00 0.00 0.00 41 1010.8
20260507221548 69 246 5.0 20.0 0.00 0.00 0.00 43 1010.9
20260507220047 69 151 10.0 18.0 0.00 0.00 0.00 43 1011.0
20260507214550 69 222 9.0 20.0 0.00 0.00 0.00 43 1011.0
20260507213045 68 237 13.0 22.0 0.00 0.00 0.00 43 1011.2
20260507211600 69 278 9.0 23.0 0.00 0.00 0.00 44 1011.3
20260507210042 69 144 7.0 18.0 0.00 0.00 0.00 44 1011.6
20260507204538 68 216 10.0 19.0 0.00 0.00 0.00 44 1011.8
20260507203036 68 245 11.0 19.0 0.00 0.00 0.00 45 1012.1
20260507201533 67 164 9.0 21.0 0.00 0.00 0.00 46 1012.4
20260507200029 67 195 13.0 22.0 0.00 0.00 0.00 47 1012.8
20260507194528 66 173 9.0 22.0 0.00 0.00 0.00 47 1012.9
20260507193024 65 180 10.0 22.0 0.00 0.00 0.00 48 1013.2
20260507191522 65 193 10.0 24.0 0.00 0.00 0.00 49 1013.4
20260507190027 65 220 14.0 19.0 0.00 0.00 0.00 48 1013.4
20260507184520 64 205 9.0 22.0 0.00 0.00 0.00 49 1013.6
20260507183022 64 193 7.0 24.0 0.00 0.00 0.00 50 1013.7
20260507181514 64 232 9.0 22.0 0.00 0.00 0.00 50 1014.0
20260507180014 64 217 10.0 22.0 0.00 0.00 0.00 50 1014.4
20260507174510 63 219 9.0 16.0 0.00 0.00 0.00 50 1014.6
20260507173007 62 207 12.0 20.0 0.00 0.00 0.00 51 1015.0
20260507171506 62 286 9.0 21.0 0.00 0.00 0.00 52 1015.0
20260507170003 61 248 9.0 18.0 0.00 0.00 0.00 52 1015.4
20260507164603 61 228 10.0 22.0 0.00 0.00 0.00 53 1015.6
20260507163058 61 233 12.0 23.0 0.00 0.00 0.00 54 1015.9
20260507161559 60 223 12.0 23.0 0.00 0.00 0.00 53 1016.1
20260507160053 59 245 14.0 21.0 0.00 0.00 0.00 55 1016.1
20260507154551 59 245 11.0 24.0 0.00 0.00 0.00 55 1016.2
20260507153054 58 216 11.0 23.0 0.00 0.00 0.00 57 1016.3
20260507151548 58 201 6.0 19.0 0.00 0.00 0.00 58 1016.4
20260507150045 57 207 11.0 16.0 0.00 0.00 0.00 60 1016.6
20260507144542 56 213 9.0 18.0 0.00 0.00 0.00 61 1016.7
20260507143042 56 230 9.0 21.0 0.00 0.00 0.00 62 1016.9
20260507141538 55 174 6.0 13.0 0.00 0.00 0.00 64 1016.7
20260507140042 54 237 4.0 12.0 0.00 0.00 0.00 66 1016.9
20260507134531 53 207 6.0 14.0 0.00 0.00 0.00 69 1016.9
20260507133031 52 231 5.0 15.0 0.00 0.00 0.00 70 1016.9
20260507131536 51 188 5.0 14.0 0.00 0.00 0.00 70 1016.9
20260507130028 50 209 6.0 13.0 0.00 0.00 0.00 71 1017.0
20260507124531 50 198 6.0 12.0 0.00 0.00 0.00 73 1017.2
20260507123028 49 215 4.0 14.0 0.00 0.00 0.00 74 1017.3
20260507121526 47 230 4.0 11.0 0.00 0.00 0.00 76 1017.3
20260507120024 46 176 2.0 6.0 0.00 0.00 0.00 77 1017.2
20260507114523 46 185 1.0 4.0 0.00 0.00 0.00 77 1017.2
20260507113023 45 204 0.0 4.0 0.00 0.00 0.00 77 1017.2
20260507111521 45 148 5.0 11.0 0.00 0.00 0.00 76 1017.1
20260507110019 46 172 0.0 5.0 0.00 0.00 0.00 75 1017.1
20260507104524 46 170 0.0 3.0 0.00 0.00 0.00 73 1017.1
20260507103015 46 192 0.0 3.0 0.00 0.00 0.00 72 1017.1
20260507101512 46 187 0.0 5.0 0.00 0.00 0.00 71 1017.3
20260507100025 47 201 0.0 2.0 0.00 0.00 0.00 70 1017.4
20260507094508 47 229 1.0 3.0 0.00 0.00 0.00 69 1017.4
20260507093005 48 196 0.0 3.0 0.00 0.00 0.00 67 1017.4
20260507091512 48 248 1.0 4.0 0.00 0.00 0.00 66 1017.5
20260507090002 49 257 0.0 4.0 0.00 0.00 0.00 65 1017.5
20260507084601 49 256 1.0 5.0 0.00 0.00 0.00 64 1017.5
20260507083105 49 214 1.0 5.0 0.00 0.00 0.00 63 1017.6
20260507081600 49 226 0.0 5.0 0.00 0.00 0.00 63 1017.7
20260507080056 49 232 0.0 5.0 0.00 0.00 0.00 61 1017.7
20260507074554 50 255 1.0 6.0 0.00 0.00 0.00 59 1017.7
20260507073102 51 257 2.0 5.0 0.00 0.00 0.00 57 1017.7
20260507071556 51 305 1.0 7.0 0.00 0.00 0.00 56 1017.8
20260507070135 51 229 2.0 6.0 0.00 0.00 0.00 54 1018.1
20260507064551 52 234 2.0 7.0 0.00 0.00 0.00 53 1018.2